Time,TemperatureF,DewpointF,PressureIn,WindDirection,WindDirectionDegrees,WindSpeedMPH,WindSpeedGustMPH,Humidity,HourlyPrecipIn,Conditions,Clouds,dailyrainin,SoftwareType,DateUTC
2013-03-25 00:02:00,35.0,26.0,30.10,NNE,22,4.0,8.0,68,0.00,,,0.00,,2013-03-25 07:02:00,
2013-03-25 00:12:00,35.0,26.0,30.10,NNE,22,4.0,8.0,68,0.00,,,0.00,,2013-03-25 07:12:00,
2013-03-25 00:21:00,35.0,26.0,30.10,NE,46,5.0,8.0,68,0.00,,,0.00,,2013-03-25 07:21:00,
2013-03-25 00:31:00,35.0,26.0,30.10,NE,43,5.0,9.0,68,0.00,,,0.00,,2013-03-25 07:31:00,
2013-03-25 00:42:00,35.0,26.0,30.10,NE,43,5.0,9.0,68,0.00,,,0.00,,2013-03-25 07:42:00,
2013-03-25 00:52:00,34.0,25.0,30.09,NNE,17,4.0,8.0,69,0.00,,,0.00,,2013-03-25 07:52:00,
2013-03-25 01:02:00,34.0,25.0,30.09,NE,38,5.0,7.0,70,0.00,,,0.00,,2013-03-25 08:02:00,
2013-03-25 01:12:00,34.0,25.0,30.09,NE,38,5.0,7.0,70,0.00,,,0.00,,2013-03-25 08:12:00,
2013-03-25 01:22:00,33.0,25.0,30.09,NE,34,3.0,6.0,71,0.00,,,0.00,,2013-03-25 08:22:00,
2013-03-25 01:32:00,33.0,25.0,30.09,NE,34,2.0,5.0,72,0.00,,,0.00,,2013-03-25 08:32:00,
2013-03-25 01:42:00,33.0,25.0,30.09,NE,34,2.0,5.0,72,0.00,,,0.00,,2013-03-25 08:42:00,
2013-03-25 01:52:00,33.0,25.0,30.09,NE,41,2.0,5.0,73,0.00,,,0.00,,2013-03-25 08:52:00,
2013-03-25 02:02:00,32.0,25.0,30.09,NE,44,2.0,5.0,74,0.00,,,0.00,,2013-03-25 09:02:00,
2013-03-25 02:11:00,32.0,25.0,30.09,NE,44,2.0,5.0,74,0.00,,,0.00,,2013-03-25 09:11:00,
2013-03-25 02:22:00,32.0,25.0,30.09,NE,36,2.0,5.0,75,0.00,,,0.00,,2013-03-25 09:22:00,
2013-03-25 02:32:00,32.0,25.0,30.09,NE,35,2.0,4.0,76,0.00,,,0.00,,2013-03-25 09:32:00,
2013-03-25 02:42:00,32.0,25.0,30.09,NE,35,2.0,4.0,76,0.00,,,0.00,,2013-03-25 09:42:00,
2013-03-25 02:52:00,32.0,25.0,30.09,NE,35,2.0,4.0,76,0.00,,,0.00,,2013-03-25 09:52:00,
2013-03-25 03:02:00,32.0,25.0,30.08,NE,45,3.0,6.0,76,0.00,,,0.00,,2013-03-25 10:02:00,
2013-03-25 03:12:00,32.0,25.0,30.08,NE,45,3.0,6.0,76,0.00,,,0.00,,2013-03-25 10:12:00,
2013-03-25 03:22:00,31.0,25.0,30.07,NE,46,2.0,4.0,78,0.00,,,0.00,,2013-03-25 10:22:00,
2013-03-25 03:32:00,31.0,25.0,30.07,NNE,29,1.0,4.0,78,0.00,,,0.00,,2013-03-25 10:32:00,
2013-03-25 03:42:00,31.0,25.0,30.07,NNE,29,1.0,4.0,78,0.00,,,0.00,,2013-03-25 10:42:00,
2013-03-25 03:52:00,31.0,25.0,30.06,NE,36,3.0,6.0,78,0.00,,,0.00,,2013-03-25 10:52:00,
2013-03-25 04:02:00,31.0,25.0,30.05,NE,34,1.0,4.0,78,0.00,,,0.00,,2013-03-25 11:02:00,
2013-03-25 04:12:00,31.0,25.0,30.05,NE,34,1.0,4.0,78,0.00,,,0.00,,2013-03-25 11:12:00,
2013-03-25 04:22:00,31.0,25.0,30.06,NE,34,1.0,3.0,79,0.00,,,0.00,,2013-03-25 11:22:00,
2013-03-25 04:32:00,31.0,26.0,30.05,NE,40,2.0,4.0,81,0.00,,,0.00,,2013-03-25 11:32:00,
2013-03-25 04:42:00,31.0,26.0,30.05,NE,40,2.0,4.0,81,0.00,,,0.00,,2013-03-25 11:42:00,
2013-03-25 04:52:00,31.0,26.0,30.05,NE,51,1.0,3.0,81,0.00,,,0.00,,2013-03-25 11:52:00,
2013-03-25 05:02:00,31.0,26.0,30.05,NE,51,1.0,4.0,81,0.00,,,0.00,,2013-03-25 12:02:00,
2013-03-25 05:12:00,31.0,26.0,30.05,NE,51,1.0,4.0,81,0.00,,,0.00,,2013-03-25 12:12:00,
2013-03-25 05:22:00,30.0,25.0,30.05,NE,51,1.0,3.0,80,0.00,,,0.00,,2013-03-25 12:22:00,
2013-03-25 05:32:00,30.0,25.0,30.05,NE,51,0.0,2.0,81,0.00,,,0.00,,2013-03-25 12:32:00,
2013-03-25 05:42:00,30.0,25.0,30.05,NE,51,0.0,2.0,81,0.00,,,0.00,,2013-03-25 12:42:00,
2013-03-25 05:52:00,30.0,25.0,30.05,NE,51,0.0,2.0,81,0.00,,,0.00,,2013-03-25 12:52:00,
2013-03-25 06:02:00,30.0,25.0,30.05,NE,51,0.0,1.0,81,0.00,,,0.00,,2013-03-25 13:02:00,
2013-03-25 06:12:00,30.0,25.0,30.05,NE,51,0.0,1.0,81,0.00,,,0.00,,2013-03-25 13:12:00,
2013-03-25 06:22:00,29.0,25.0,30.05,NE,51,0.0,1.0,83,0.00,,,0.00,,2013-03-25 13:22:00,
2013-03-25 06:32:00,29.0,25.0,30.05,NE,51,0.0,1.0,84,0.00,,,0.00,,2013-03-25 13:32:00,
2013-03-25 06:42:00,29.0,25.0,30.05,NE,51,0.0,1.0,84,0.00,,,0.00,,2013-03-25 13:42:00,
2013-03-25 06:52:00,28.0,24.0,30.06,NE,51,0.0,2.0,85,0.00,,,0.00,,2013-03-25 13:52:00,
2013-03-25 07:02:00,28.0,24.0,30.05,NE,51,0.0,1.0,86,0.00,,,0.00,,2013-03-25 14:02:00,
2013-03-25 07:12:00,28.0,24.0,30.05,NE,51,0.0,1.0,86,0.00,,,0.00,,2013-03-25 14:12:00,
2013-03-25 07:22:00,28.0,25.0,30.05,NE,51,1.0,2.0,87,0.00,,,0.00,,2013-03-25 14:22:00,
2013-03-25 07:32:00,28.0,25.0,30.04,ENE,71,0.0,2.0,87,0.00,,,0.00,,2013-03-25 14:32:00,
2013-03-25 07:42:00,28.0,25.0,30.04,ENE,71,0.0,2.0,87,0.00,,,0.00,,2013-03-25 14:42:00,
2013-03-25 07:52:00,28.0,25.0,30.04,ENE,78,0.0,3.0,87,0.00,,,0.00,,2013-03-25 14:52:00,
2013-03-25 08:02:00,29.0,25.0,30.04,ENE,78,0.0,2.0,86,0.00,,,0.00,,2013-03-25 15:02:00,
2013-03-25 08:12:00,29.0,25.0,30.04,ENE,78,0.0,2.0,86,0.00,,,0.00,,2013-03-25 15:12:00,
2013-03-25 08:22:00,29.0,25.0,30.03,ENE,78,0.0,1.0,86,0.00,,,0.00,,2013-03-25 15:22:00,
2013-03-25 08:32:00,30.0,26.0,30.03,ENE,78,0.0,1.0,84,0.00,,,0.00,,2013-03-25 15:32:00,
2013-03-25 08:42:00,30.0,26.0,30.03,ENE,78,0.0,1.0,84,0.00,,,0.00,,2013-03-25 15:42:00,
2013-03-25 08:52:00,31.0,26.0,30.03,ENE,78,0.0,2.0,82,0.00,,,0.00,,2013-03-25 15:52:00,
2013-03-25 09:03:00,32.0,27.0,30.03,ENE,78,0.0,1.0,81,0.00,,,0.00,,2013-03-25 16:03:00,
2013-03-25 09:12:00,32.0,27.0,30.03,ENE,78,0.0,1.0,81,0.00,,,0.00,,2013-03-25 16:12:00,
2013-03-25 09:22:00,32.0,27.0,30.03,ENE,78,0.0,1.0,81,0.00,,,0.00,,2013-03-25 16:22:00,
2013-03-25 09:32:00,35.0,28.0,30.03,SSE,159,0.0,4.0,76,0.00,,,0.00,,2013-03-25 16:32:00,
2013-03-25 09:42:00,35.0,28.0,30.03,SSE,159,0.0,4.0,76,0.00,,,0.00,,2013-03-25 16:42:00,
2013-03-25 09:52:00,35.0,27.0,30.03,SSE,163,1.0,4.0,73,0.00,,,0.00,,2013-03-25 16:52:00,
2013-03-25 10:02:00,37.0,27.0,30.03,South,171,1.0,4.0,67,0.00,,,0.00,,2013-03-25 17:02:00,
2013-03-25 10:12:00,37.0,27.0,30.03,South,171,1.0,4.0,67,0.00,,,0.00,,2013-03-25 17:12:00,
2013-03-25 10:22:00,39.0,29.0,30.02,ESE,111,1.0,5.0,66,0.00,,,0.00,,2013-03-25 17:22:00,
2013-03-25 10:32:00,39.0,26.0,30.01,South,186,1.0,5.0,60,0.00,,,0.00,,2013-03-25 17:32:00,
2013-03-25 10:42:00,39.0,26.0,30.01,South,186,1.0,5.0,60,0.00,,,0.00,,2013-03-25 17:42:00,
2013-03-25 10:51:00,43.0,28.0,30.01,South,185,3.0,6.0,56,0.00,,,0.00,,2013-03-25 17:51:00,
2013-03-25 11:03:00,43.0,28.0,30.01,WSW,247,0.0,7.0,55,0.00,,,0.00,,2013-03-25 18:03:00,
2013-03-25 11:12:00,43.0,28.0,30.01,WSW,247,0.0,7.0,55,0.00,,,0.00,,2013-03-25 18:12:00,
2013-03-25 11:22:00,44.0,29.0,30.00,East,95,2.0,6.0,55,0.00,,,0.00,,2013-03-25 18:22:00,
2013-03-25 11:32:00,44.0,27.0,29.99,SE,135,2.0,7.0,51,0.00,,,0.00,,2013-03-25 18:32:00,
2013-03-25 11:42:00,44.0,27.0,29.99,SE,135,2.0,7.0,51,0.00,,,0.00,,2013-03-25 18:42:00,
2013-03-25 11:52:00,46.0,27.0,29.98,SE,136,0.0,2.0,47,0.00,,,0.00,,2013-03-25 18:52:00,
2013-03-25 12:02:00,48.0,29.0,29.98,East,83,1.0,6.0,47,0.00,,,0.00,,2013-03-25 19:02:00,
2013-03-25 12:12:00,48.0,29.0,29.98,East,83,1.0,6.0,47,0.00,,,0.00,,2013-03-25 19:12:00,
2013-03-25 12:22:00,49.0,29.0,29.97,ESE,121,0.0,5.0,46,0.00,,,0.00,,2013-03-25 19:22:00,
2013-03-25 12:32:00,49.0,29.0,29.96,ENE,68,4.0,8.0,46,0.00,,,0.00,,2013-03-25 19:32:00,
2013-03-25 12:41:00,49.0,30.0,29.95,ESE,109,2.0,7.0,47,0.00,,,0.00,,2013-03-25 19:41:00,
2013-03-25 12:42:00,49.0,29.0,29.96,ENE,68,4.0,8.0,46,0.00,,,0.00,,2013-03-25 19:42:00,
2013-03-25 12:52:00,51.0,29.0,29.96,ESE,123,3.0,7.0,43,0.00,,,0.00,,2013-03-25 19:52:00,
2013-03-25 13:02:00,49.0,30.0,29.95,ESE,109,2.0,7.0,47,0.00,,,0.00,,2013-03-25 20:02:00,
2013-03-25 13:12:00,49.0,30.0,29.95,ESE,109,2.0,7.0,47,0.00,,,0.00,,2013-03-25 20:12:00,
2013-03-25 13:22:00,49.0,30.0,29.95,ESE,109,2.0,7.0,47,0.00,,,0.00,,2013-03-25 20:22:00,
2013-03-25 13:32:00,49.0,30.0,29.95,ESE,109,2.0,7.0,47,0.00,,,0.00,,2013-03-25 20:32:00,
2013-03-25 15:03:00,54.0,31.0,29.90,NNE,29,4.0,12.0,42,0.00,,,0.00,,2013-03-25 22:03:00,
2013-03-25 15:12:00,54.0,31.0,29.90,NNE,29,4.0,12.0,42,0.00,,,0.00,,2013-03-25 22:12:00,
2013-03-25 15:23:00,54.0,31.0,29.90,NNE,19,6.0,12.0,42,0.00,,,0.00,,2013-03-25 22:23:00,
2013-03-25 15:32:00,54.0,31.0,29.89,NNE,24,7.0,11.0,42,0.00,,,0.00,,2013-03-25 22:32:00,
2013-03-25 15:42:00,54.0,31.0,29.89,NNE,24,7.0,11.0,42,0.00,,,0.00,,2013-03-25 22:42:00,
2013-03-25 15:52:00,54.0,32.0,29.89,NE,36,8.0,14.0,43,0.00,,,0.00,,2013-03-25 22:52:00,
2013-03-25 16:02:00,54.0,32.0,29.89,NNE,28,6.0,13.0,43,0.00,,,0.00,,2013-03-25 23:02:00,
2013-03-25 16:11:00,54.0,32.0,29.89,NNE,28,6.0,13.0,43,0.00,,,0.00,,2013-03-25 23:11:00,
2013-03-25 16:22:00,53.0,32.0,29.89,NNE,33,6.0,11.0,45,0.00,,,0.00,,2013-03-25 23:22:00,
2013-03-25 16:32:00,52.0,31.0,29.89,ENE,64,7.0,12.0,45,0.00,,,0.00,,2013-03-25 23:32:00,
2013-03-25 16:42:00,52.0,31.0,29.89,ENE,64,7.0,12.0,45,0.00,,,0.00,,2013-03-25 23:42:00,
2013-03-25 16:52:00,50.0,31.0,29.89,NE,36,7.0,13.0,47,0.00,,,0.00,,2013-03-25 23:52:00,
2013-03-25 17:02:00,49.0,30.0,29.88,ENE,59,9.0,14.0,48,0.00,,,0.00,,2013-03-26 00:02:00,
2013-03-25 17:11:00,49.0,30.0,29.88,ENE,59,9.0,14.0,48,0.00,,,0.00,,2013-03-26 00:11:00,
2013-03-25 17:22:00,49.0,31.0,29.88,NNE,33,10.0,16.0,50,0.00,,,0.00,,2013-03-26 00:22:00,
2013-03-25 17:32:00,48.0,31.0,29.88,NNE,31,9.0,15.0,51,0.00,,,0.00,,2013-03-26 00:32:00,
2013-03-25 17:42:00,48.0,31.0,29.88,NNE,31,9.0,15.0,51,0.00,,,0.00,,2013-03-26 00:42:00,
2013-03-25 17:52:00,47.0,30.0,29.88,NE,36,8.0,15.0,51,0.00,,,0.00,,2013-03-26 00:52:00,
2013-03-25 18:02:00,47.0,30.0,29.88,NNE,19,7.0,16.0,52,0.00,,,0.00,,2013-03-26 01:02:00,
2013-03-25 18:11:00,47.0,30.0,29.88,NNE,19,7.0,16.0,52,0.00,,,0.00,,2013-03-26 01:11:00,
2013-03-25 18:22:00,46.0,30.0,29.88,NE,42,9.0,16.0,54,0.00,,,0.00,,2013-03-26 01:22:00,
2013-03-25 18:32:00,45.0,30.0,29.87,NNE,17,8.0,15.0,56,0.00,,,0.00,,2013-03-26 01:32:00,
2013-03-25 18:42:00,45.0,30.0,29.87,NNE,17,8.0,15.0,56,0.00,,,0.00,,2013-03-26 01:42:00,
2013-03-25 18:52:00,45.0,31.0,29.88,NE,42,9.0,16.0,58,0.00,,,0.00,,2013-03-26 01:52:00,
2013-03-25 19:02:00,44.0,30.0,29.87,NE,39,10.0,16.0,58,0.00,,,0.00,,2013-03-26 02:02:00,
2013-03-25 19:11:00,44.0,30.0,29.87,NE,39,10.0,16.0,58,0.00,,,0.00,,2013-03-26 02:11:00,
2013-03-25 19:22:00,44.0,31.0,29.88,ENE,59,7.0,15.0,59,0.00,,,0.00,,2013-03-26 02:22:00,
2013-03-25 19:32:00,44.0,31.0,29.88,NE,34,10.0,15.0,59,0.00,,,0.00,,2013-03-26 02:32:00,
2013-03-25 19:42:00,44.0,31.0,29.88,NE,34,10.0,15.0,59,0.00,,,0.00,,2013-03-26 02:42:00,
2013-03-25 19:52:00,43.0,30.0,29.88,NE,53,5.0,11.0,60,0.00,,,0.00,,2013-03-26 02:52:00,
2013-03-25 20:02:00,43.0,30.0,29.88,NE,46,5.0,10.0,61,0.00,,,0.00,,2013-03-26 03:02:00,
2013-03-25 20:11:00,43.0,30.0,29.88,NE,46,5.0,10.0,61,0.00,,,0.00,,2013-03-26 03:11:00,
2013-03-25 20:22:00,42.0,30.0,29.88,NE,56,6.0,15.0,61,0.00,,,0.00,,2013-03-26 03:22:00,
2013-03-25 20:33:00,42.0,30.0,29.88,NNE,26,6.0,13.0,61,0.00,,,0.00,,2013-03-26 03:33:00,
2013-03-25 20:42:00,42.0,30.0,29.88,NNE,26,6.0,13.0,61,0.00,,,0.00,,2013-03-26 03:42:00,
2013-03-25 20:52:00,41.0,29.0,29.89,NE,34,6.0,10.0,62,0.00,,,0.00,,2013-03-26 03:52:00,
2013-03-25 21:03:00,41.0,29.0,29.90,NNE,20,3.0,8.0,63,0.00,,,0.00,,2013-03-26 04:03:00,
2013-03-25 21:12:00,41.0,29.0,29.90,NNE,20,3.0,8.0,63,0.00,,,0.00,,2013-03-26 04:12:00,
2013-03-25 21:22:00,41.0,30.0,29.91,NE,40,5.0,7.0,64,0.00,,,0.00,,2013-03-26 04:22:00,
2013-03-25 21:32:00,41.0,30.0,29.91,NE,53,6.0,9.0,65,0.00,,,0.00,,2013-03-26 04:32:00,
2013-03-25 21:42:00,41.0,30.0,29.91,NE,53,6.0,9.0,65,0.00,,,0.00,,2013-03-26 04:42:00,
2013-03-25 21:52:00,41.0,31.0,29.92,ENE,58,6.0,9.0,66,0.00,,,0.00,,2013-03-26 04:52:00,
2013-03-25 22:02:00,40.0,30.0,29.92,NNE,22,4.0,7.0,66,0.00,,,0.00,,2013-03-26 05:02:00,
2013-03-25 22:11:00,40.0,30.0,29.92,NNE,22,4.0,7.0,66,0.00,,,0.00,,2013-03-26 05:11:00,
2013-03-25 22:22:00,40.0,30.0,29.92,NNE,21,6.0,10.0,66,0.00,,,0.00,,2013-03-26 05:22:00,
2013-03-25 22:32:00,40.0,30.0,29.93,NE,39,8.0,14.0,68,0.00,,,0.00,,2013-03-26 05:32:00,
2013-03-25 22:42:00,40.0,30.0,29.93,NE,39,8.0,14.0,68,0.00,,,0.00,,2013-03-26 05:42:00,
2013-03-25 22:52:00,40.0,30.0,29.93,NE,39,8.0,14.0,68,0.00,,,0.00,,2013-03-26 05:52:00,
2013-03-25 23:01:00,38.0,32.0,29.93,North,5,4.0,8.0,78,0.00,,,0.00,,2013-03-26 06:01:00,
2013-03-25 23:12:00,38.0,32.0,29.93,North,5,4.0,8.0,78,0.00,,,0.00,,2013-03-26 06:12:00,
2013-03-25 23:22:00,36.0,31.0,29.91,NE,41,5.0,9.0,83,0.00,,,0.00,,2013-03-26 06:22:00,
2013-03-25 23:32:00,36.0,32.0,29.91,NE,49,5.0,11.0,85,0.00,,,0.00,,2013-03-26 06:32:00,
2013-03-25 23:42:00,36.0,32.0,29.91,NE,49,5.0,11.0,85,0.00,,,0.00,,2013-03-26 06:42:00,
2013-03-25 23:52:00,36.0,32.0,29.92,ENE,61,4.0,9.0,85,0.00,,,0.00,,2013-03-26 06:52:00,